Regional Weather Roundup
Issued by NWS

Home | Current Version | Previous Version | Graphics & Text | Print | Product List | Glossary On
Versions: 1 2 3 4 5 6 7 8 9 10 11 12 13 14 15 16 17 18 19 20 21 22 23 24 25 26 27 28 29 30 31 32 33 34 35 36 37 38 39 40 41 42 43 44 45 46 47 48 49 50
000
ASUS45 KTFX 041804
RWRMT
MONTANA REGIONAL WEATHER ROUNDUP
NATIONAL WEATHER SERVICE GREAT FALLS MT
1200 PM MDT FRI SEP 04 2015

NOTE: "FAIR" INDICATES FEW OR NO CLOUDS BELOW 12000 FEET WITH NO
SIGNIFICANT WEATHER AND/OR OBSTRUCTIONS TO VISIBILITY.

MTZ001>007-043-041900-
WEST OF THE DIVIDE

CITY           SKY/WX    TMP DP  RH WIND       PRES   REMARKS
KALISPELL      MOCLDY    56  46  69 N9        29.97F
MISSOULA       CLOUDY    52  46  80 SW3       29.97F
BUTTE          CLOUDY    47  41  80 S3        30.00S
MULLAN PASS    PTSUNNY   47  38  71 VRB3      29.98S
DEER LODGE       N/A     48  46  93 CALM      30.02F
EUREKA           N/A     48  43  81 NW9       30.03F
HAMILTON         N/A     50  43  76 E3        29.97S
LIBBY            N/A     54  39  58 CALM      29.99F
$$

MTZ008-052>055-041900-
SOUTHWEST MONTANA

CITY           SKY/WX    TMP DP  RH WIND       PRES   REMARKS
BOZEMAN        CLOUDY    54  47  77 N3        29.97F
DILLON         CLOUDY    49  43  80 NW3       29.97R
W YELLOWSTONE  SUNNY     64  41  42 SW13G21   29.96F
$$

MTZ009-010-012-014-046-048-049-054-041900-
EAST SLOPES AND CENTRAL MONTANA

CITY           SKY/WX    TMP DP  RH WIND       PRES   REMARKS
CUT BANK       LGT RAIN  46  44  93 N14       30.02F FOG
GREAT FALLS    LGT RAIN  50  48  93 SE5       29.98F
MALMSTROM AFB  LGT RAIN  51  49  95 N5        29.99F
HELENA         CLOUDY    52  47  83 CALM      29.99R
$$

MTZ011-013-016-021-045-047-050-051-041900-
NORTH CENTRAL MONTANA

CITY           SKY/WX    TMP DP  RH WIND       PRES   REMARKS
HAVRE          LGT RAIN  53  50  89 N6        30.02S
LEWISTOWN      CLOUDY    54  38  54 CALM      29.99F
N BAR RANCH    CLOUDY    54  43  66 W8        30.00S
CHINOOK          N/A     54  48  82 CALM      30.02S
FORT BENTON      N/A     50  46  87 NE7       30.03R
$$

MTZ017>020-022>027-061-062-041900-
NORTHEAST MONTANA

CITY           SKY/WX    TMP DP  RH WIND       PRES   REMARKS
GLASGOW        MOSUNNY   70  46  42 NE17      29.90F
JORDAN           N/A     67  48  50 N13       29.90F
SIDNEY         CLOUDY    66  52  59 N9          N/A
WOLF POINT     SUNNY     73  50  44 NE14      29.88F
PLENTYWOOD       N/A     64  50  59 N22G28    29.89F
POPLAR           N/A     70  52  52 N14G23    29.88F
$$

MTZ028>42-056>058-041900-
SOUTHCENTRAL AND SOUTHEAST MONTANA

CITY           SKY/WX    TMP DP  RH WIND       PRES   REMARKS
BAKER          CLOUDY    69  55  60 N10       29.88S
BILLINGS       MOSUNNY   61  44  53 VRB3      29.94F
LIVINGSTON     CLOUDY    56  45  66 E13       29.96S
MILES CITY     CLOUDY    68  48  48 W9        29.87F
FORSYTH          N/A     61  45  55 W8        29.90F
$$

REGIONAL REPORTS...DAKOTAS

CITY           SKY/WX    TMP DP  RH WIND       PRES   REMARKS
WILLISTON      CLOUDY    66  52  60 NE20      29.89R
MINOT          CLOUDY    73  63  70 NE8       29.79F
DICKINSON      CLOUDY    70  64  81 N10       29.83R
BISMARCK       CLOUDY    78  71  79 NE7       29.79F
GRAND FORKS    TSTM      77  74  90 SE8       29.76F
FARGO          CLOUDY    82  68  62 S17       29.81R
BUFFALO SD       N/A     80  60  50 NE5       29.78S
RAPID CITY     SUNNY     83  54  36 VRB3      29.83S
$$

REGIONAL REPORTS...WYOMING/IDAHO/WASHINGTON

CITY           SKY/WX    TMP DP  RH WIND       PRES   REMARKS
GILLETTE       SUNNY     76  50  40 NE7       29.92F
SHERIDAN       SUNNY     71  45  39 CALM      29.91F
BUFFALO WY     SUNNY     71  46  40 S7        29.95F
CODY           MOSUNNY   63  46  55 NE7       29.94F
YELLOWSTONE LA   N/A     60  34  37 MISG      30.04S
IDAHO FALLS    SUNNY     64  38  38 SW12      29.89F
SALMON         CLOUDY    46  45  93 CALM      29.98S
BOISE          MOSUNNY   63  42  46 W7        29.83S
SPOKANE        MOSUNNY   58  36  43 VRB5      29.94F
$$

REGIONAL REPORTS...ALBERTA

CITY           SKY/WX    TMP DP  RH WIND       PRES   REMARKS
EDMONTON       CLOUDY    45  41  87 N5        30.18R
$$

REGIONAL REPORTS...SASKATCHEWAN

CITY           SKY/WX    TMP DP  RH WIND       PRES   REMARKS
$$



USA.gov is the U.S. government's official web portal to all federal, state and local government web resources and services.